Year,Month,Day,Hour,Minute,Value (Times are PST for temperature in C)
2017,04,01,11,47,8.60
2017,04,01,11,48,8.60
2017,04,01,11,49,8.70
2017,04,01,11,50,8.70
2017,04,01,11,51,8.80
2017,04,01,11,52,8.90
2017,04,01,11,53,8.90
2017,04,01,11,54,9.00
2017,04,01,11,55,9.00
2017,04,01,11,56,9.10
2017,04,01,11,57,9.20
2017,04,01,11,58,9.20
2017,04,01,11,59,9.30
2017,04,01,12,00,9.30
2017,04,01,12,01,9.30
2017,04,01,12,02,9.40
2017,04,01,12,03,9.40
2017,04,01,12,04,9.50
2017,04,01,12,05,9.60
2017,04,01,12,06,9.60
2017,04,01,12,07,9.70
2017,04,01,12,08,9.80
2017,04,01,12,09,9.80
2017,04,01,12,10,9.70
2017,04,01,12,11,9.70
2017,04,01,12,12,9.70
2017,04,01,12,13,9.80
2017,04,01,12,14,9.70
2017,04,01,12,15,9.70
2017,04,01,12,16,9.60
2017,04,01,12,17,9.60
2017,04,01,12,18,9.70
2017,04,01,12,19,9.90
2017,04,01,12,20,9.90
2017,04,01,12,21,10.00
2017,04,01,12,22,10.10
2017,04,01,12,23,10.20
2017,04,01,12,24,10.30
2017,04,01,12,25,10.20
2017,04,01,12,26,10.20
2017,04,01,12,27,10.30
2017,04,01,12,28,10.20
2017,04,01,12,29,10.20
2017,04,01,12,30,10.10
2017,04,01,12,31,10.10
2017,04,01,12,32,10.10
2017,04,01,12,33,10.10
2017,04,01,12,34,10.20
2017,04,01,12,35,10.40
2017,04,01,12,36,10.40
2017,04,01,12,37,10.40
2017,04,01,12,38,10.50
2017,04,01,12,39,10.40
2017,04,01,12,40,10.30
2017,04,01,12,41,10.40
2017,04,01,12,42,10.60
2017,04,01,12,43,10.70
2017,04,01,12,44,10.80
2017,04,01,12,45,10.90
2017,04,01,12,46,10.80
2017,04,01,12,47,10.80
2017,04,01,12,48,10.70
2017,04,01,12,49,10.90
2017,04,01,12,50,10.90
2017,04,01,12,51,11.00
2017,04,01,12,52,11.10
2017,04,01,12,53,11.20
2017,04,01,12,54,11.30
2017,04,01,12,55,11.30
2017,04,01,12,56,11.40
2017,04,01,12,57,11.60
2017,04,01,12,58,11.70
2017,04,01,12,59,11.80
2017,04,01,13,00,11.90
2017,04,01,13,01,11.90
2017,04,01,13,02,12.00
2017,04,01,13,03,12.00
2017,04,01,13,04,12.10
2017,04,01,13,05,12.10
2017,04,01,13,06,12.00
2017,04,01,13,07,12.10
2017,04,01,13,08,12.20
2017,04,01,13,09,12.00
2017,04,01,13,10,12.00
2017,04,01,13,11,12.20
2017,04,01,13,12,12.30
2017,04,01,13,13,12.30
2017,04,01,13,14,12.20
2017,04,01,13,15,12.10
2017,04,01,13,16,12.00
2017,04,01,13,17,12.00
2017,04,01,13,18,12.00
2017,04,01,13,19,12.00
2017,04,01,13,20,12.00
2017,04,01,13,21,12.00
2017,04,01,13,22,12.00
2017,04,01,13,23,12.00
2017,04,01,13,24,12.10
2017,04,01,13,25,12.10
2017,04,01,13,26,12.30
2017,04,01,13,27,12.40
2017,04,01,13,28,12.50
2017,04,01,13,29,12.60
2017,04,01,13,30,12.60
2017,04,01,13,31,12.70
2017,04,01,13,32,12.70
2017,04,01,13,33,12.80
2017,04,01,13,34,12.90
2017,04,01,13,35,12.90
2017,04,01,13,36,13.00
2017,04,01,13,37,13.10
2017,04,01,13,38,13.10
2017,04,01,13,39,13.10
2017,04,01,13,40,13.20
2017,04,01,13,41,13.20
2017,04,01,13,42,13.20
2017,04,01,13,43,13.20
2017,04,01,13,44,13.20
2017,04,01,13,45,13.30
2017,04,01,13,46,13.30
2017,04,01,13,47,13.20
2017,04,01,13,48,13.10
2017,04,01,13,49,13.10
2017,04,01,13,50,13.00
2017,04,01,13,51,13.00
2017,04,01,13,52,13.10
2017,04,01,13,53,13.10
2017,04,01,13,54,13.20
2017,04,01,13,55,13.20
2017,04,01,13,56,13.20
2017,04,01,13,57,13.20
2017,04,01,13,58,13.20
2017,04,01,13,59,13.20
2017,04,01,14,00,13.30
2017,04,01,14,01,13.30
2017,04,01,14,02,13.20
2017,04,01,14,03,13.10
2017,04,01,14,04,13.20
2017,04,01,14,05,13.30
2017,04,01,14,06,13.30
2017,04,01,14,07,13.30
2017,04,01,14,08,13.20
2017,04,01,14,09,13.20
2017,04,01,14,10,13.30
2017,04,01,14,11,13.30
2017,04,01,14,12,13.40
2017,04,01,14,13,13.40
2017,04,01,14,14,13.40
2017,04,01,14,15,13.30
2017,04,01,14,16,13.30
2017,04,01,14,17,13.30
2017,04,01,14,18,13.30
2017,04,01,14,19,13.30
2017,04,01,14,20,13.30
2017,04,01,14,21,13.30
2017,04,01,14,22,13.30
2017,04,01,14,23,13.30
2017,04,01,14,24,13.30
2017,04,01,14,25,13.30
2017,04,01,14,26,13.30
2017,04,01,14,27,13.10
2017,04,01,14,28,13.10
2017,04,01,14,29,13.00
2017,04,01,14,30,13.00
2017,04,01,14,31,13.00
2017,04,01,14,32,13.10
2017,04,01,14,33,13.10
2017,04,01,14,34,13.20
2017,04,01,14,35,13.20
2017,04,01,14,36,13.20
2017,04,01,14,37,13.30
2017,04,01,14,38,13.30
2017,04,01,14,39,13.30
2017,04,01,14,40,13.30
2017,04,01,14,41,13.20
2017,04,01,14,42,13.20
2017,04,01,14,43,13.30
2017,04,01,14,44,13.30
2017,04,01,14,45,13.40
2017,04,01,14,46,13.30
2017,04,01,14,47,13.20
2017,04,01,14,48,13.00
2017,04,01,14,49,13.00
2017,04,01,14,50,13.00
2017,04,01,14,51,13.00
2017,04,01,14,52,12.90
2017,04,01,14,53,12.90
2017,04,01,14,54,12.80
2017,04,01,14,55,12.80
2017,04,01,14,56,12.80
2017,04,01,14,57,12.90
2017,04,01,14,58,12.90
2017,04,01,14,59,12.80
2017,04,01,15,00,12.80
2017,04,01,15,01,12.80
2017,04,01,15,02,12.80
2017,04,01,15,03,12.90
2017,04,01,15,04,13.00
2017,04,01,15,05,13.00
2017,04,01,15,06,12.90
2017,04,01,15,07,13.00
2017,04,01,15,08,13.10
2017,04,01,15,09,13.10
2017,04,01,15,10,13.20
2017,04,01,15,11,13.30
2017,04,01,15,12,13.30
2017,04,01,15,13,13.30
2017,04,01,15,14,13.30
2017,04,01,15,15,13.20
2017,04,01,15,16,13.10
2017,04,01,15,17,13.10
2017,04,01,15,18,13.10
2017,04,01,15,19,13.10
2017,04,01,15,20,13.20
2017,04,01,15,21,13.10
2017,04,01,15,22,13.00
2017,04,01,15,23,13.00
2017,04,01,15,24,12.90
2017,04,01,15,25,12.80
2017,04,01,15,26,12.90
2017,04,01,15,27,12.90
2017,04,01,15,28,13.00
2017,04,01,15,29,13.10
2017,04,01,15,30,13.10
2017,04,01,15,31,13.20
2017,04,01,15,32,13.30
2017,04,01,15,33,13.40
2017,04,01,15,34,13.40
2017,04,01,15,35,13.40
2017,04,01,15,36,13.40
2017,04,01,15,37,13.30
2017,04,01,15,38,13.30
2017,04,01,15,39,13.30
2017,04,01,15,40,13.30
2017,04,01,15,41,13.20
2017,04,01,15,42,13.10
2017,04,01,15,43,13.00
2017,04,01,15,44,12.90
2017,04,01,15,45,12.90
2017,04,01,15,46,12.90
2017,04,01,15,47,12.90
2017,04,01,15,48,12.90
2017,04,01,15,49,12.90
2017,04,01,15,50,12.90
2017,04,01,15,51,12.90
2017,04,01,15,52,12.90
2017,04,01,15,53,12.90
2017,04,01,15,54,12.90
2017,04,01,15,55,12.80
2017,04,01,15,56,12.80
2017,04,01,15,57,12.80
2017,04,01,15,58,12.80
2017,04,01,15,59,12.80
2017,04,01,16,00,12.90
2017,04,01,16,01,12.90
2017,04,01,16,02,12.90
2017,04,01,16,03,12.90
2017,04,01,16,04,12.80
2017,04,01,16,05,12.90
2017,04,01,16,06,12.90
2017,04,01,16,07,12.90
2017,04,01,16,08,12.80
2017,04,01,16,09,12.80
2017,04,01,16,10,12.80
2017,04,01,16,11,12.80
2017,04,01,16,12,12.90
2017,04,01,16,13,12.90
2017,04,01,16,14,12.90
2017,04,01,16,15,12.90
2017,04,01,16,16,12.90
2017,04,01,16,17,12.80
2017,04,01,16,18,12.80
2017,04,01,16,19,12.80
2017,04,01,16,20,12.80
2017,04,01,16,21,12.80
2017,04,01,16,22,12.80
2017,04,01,16,23,12.80
2017,04,01,16,24,12.80
2017,04,01,16,25,12.90
2017,04,01,16,26,12.80
2017,04,01,16,27,12.80
2017,04,01,16,28,12.90
2017,04,01,16,29,12.90
2017,04,01,16,30,12.90
2017,04,01,16,31,12.80
2017,04,01,16,32,12.80
2017,04,01,16,33,12.70
2017,04,01,16,34,12.60
2017,04,01,16,35,12.50
2017,04,01,16,36,12.50
2017,04,01,16,37,12.60
2017,04,01,16,38,12.60
2017,04,01,16,39,12.70
2017,04,01,16,40,12.70
2017,04,01,16,41,12.60
2017,04,01,16,42,12.60
2017,04,01,16,43,12.60
2017,04,01,16,44,12.60
2017,04,01,16,45,12.50
2017,04,01,16,46,12.50
2017,04,01,16,47,12.50
2017,04,01,16,48,12.50
2017,04,01,16,49,12.50
2017,04,01,16,50,12.50
2017,04,01,16,51,12.50
2017,04,01,16,52,12.50
2017,04,01,16,53,12.40
2017,04,01,16,54,12.40
2017,04,01,16,55,12.30
2017,04,01,16,56,12.30
2017,04,01,16,57,12.30
2017,04,01,16,58,12.20
2017,04,01,16,59,12.20
2017,04,01,17,00,12.20
2017,04,01,17,01,12.20
2017,04,01,17,02,12.20
2017,04,01,17,03,12.20
2017,04,01,17,04,12.10
2017,04,01,17,05,12.10
2017,04,01,17,06,12.00
2017,04,01,17,07,11.90
2017,04,01,17,08,11.90
2017,04,01,17,09,11.80
2017,04,01,17,10,11.80
2017,04,01,17,11,11.80
2017,04,01,17,12,11.80
2017,04,01,17,13,11.80
2017,04,01,17,14,11.80
2017,04,01,17,15,11.80
2017,04,01,17,16,11.90
2017,04,01,17,17,11.90
2017,04,01,17,18,11.90
2017,04,01,17,19,11.90
2017,04,01,17,20,11.90
2017,04,01,17,21,11.90
2017,04,01,17,22,11.90
2017,04,01,17,23,11.90
2017,04,01,17,24,11.90
2017,04,01,17,25,11.80
2017,04,01,17,26,11.80
2017,04,01,17,27,11.80
2017,04,01,17,28,11.80
2017,04,01,17,29,11.80
2017,04,01,17,30,11.80
2017,04,01,17,31,11.80
2017,04,01,17,32,11.80
2017,04,01,17,33,11.80
2017,04,01,17,34,11.80
2017,04,01,17,35,11.80
2017,04,01,17,36,11.80
2017,04,01,17,37,11.80
2017,04,01,17,38,11.80
2017,04,01,17,39,11.80
2017,04,01,17,40,11.80
2017,04,01,17,41,11.70
2017,04,01,17,42,11.60
2017,04,01,17,43,11.60
2017,04,01,17,44,11.60
2017,04,01,17,45,11.50
2017,04,01,17,46,11.40
2017,04,01,17,47,11.40
2017,04,01,17,48,11.30
2017,04,01,17,49,11.30
2017,04,01,17,50,11.30
2017,04,01,17,51,11.30
2017,04,01,17,52,11.30
2017,04,01,17,53,11.30
2017,04,01,17,54,11.20
2017,04,01,17,55,11.20
2017,04,01,17,56,11.10
2017,04,01,17,57,11.10
2017,04,01,17,58,11.10
2017,04,01,17,59,11.00
2017,04,01,18,00,10.90
2017,04,01,18,01,10.90
2017,04,01,18,02,10.90
2017,04,01,18,03,10.90
2017,04,01,18,04,10.90
2017,04,01,18,05,10.90
2017,04,01,18,06,10.90
2017,04,01,18,07,10.90
2017,04,01,18,08,10.90
2017,04,01,18,09,10.90
2017,04,01,18,10,10.80
2017,04,01,18,11,10.90
2017,04,01,18,12,10.90
2017,04,01,18,13,10.90
2017,04,01,18,14,10.90
2017,04,01,18,15,10.90
2017,04,01,18,16,10.80
2017,04,01,18,17,10.70
2017,04,01,18,18,10.60
2017,04,01,18,19,10.50
2017,04,01,18,20,10.40
2017,04,01,18,21,10.40
2017,04,01,18,22,10.40
2017,04,01,18,23,10.30
2017,04,01,18,24,10.30
2017,04,01,18,25,10.40
2017,04,01,18,26,10.40
2017,04,01,18,27,10.40
2017,04,01,18,28,10.40
2017,04,01,18,29,10.40
2017,04,01,18,30,10.40
2017,04,01,18,31,10.40
2017,04,01,18,32,10.30
2017,04,01,18,33,10.20
2017,04,01,18,34,10.20
2017,04,01,18,35,10.20
2017,04,01,18,36,10.20
2017,04,01,18,37,10.20
2017,04,01,18,38,10.20
2017,04,01,18,39,10.20
2017,04,01,18,40,10.20
2017,04,01,18,41,9.90
2017,04,01,18,42,9.90
2017,04,01,18,43,9.80
2017,04,01,18,44,9.80
2017,04,01,18,45,9.80
2017,04,01,18,46,9.70
2017,04,01,18,47,9.70
2017,04,01,18,48,9.70
2017,04,01,18,49,9.60
2017,04,01,18,50,9.60
2017,04,01,18,51,9.60
2017,04,01,18,52,9.50
2017,04,01,18,53,9.50
2017,04,01,18,54,9.50
2017,04,01,18,55,9.40
2017,04,01,18,56,9.40
2017,04,01,18,57,9.40
2017,04,01,18,58,9.30
2017,04,01,18,59,9.30
2017,04,01,19,00,9.30
2017,04,01,19,01,9.30
2017,04,01,19,02,9.30
2017,04,01,19,03,9.20
2017,04,01,19,04,9.20
2017,04,01,19,05,9.20
2017,04,01,19,06,9.20
2017,04,01,19,07,9.20
2017,04,01,19,08,9.20
2017,04,01,19,09,9.10
2017,04,01,19,10,9.10
2017,04,01,19,11,9.10
2017,04,01,19,12,9.10
2017,04,01,19,13,9.00
2017,04,01,19,14,9.00
2017,04,01,19,15,9.00
2017,04,01,19,16,8.90
2017,04,01,19,17,8.90
2017,04,01,19,18,8.90
2017,04,01,19,19,8.90
2017,04,01,19,20,8.90
2017,04,01,19,21,8.90
2017,04,01,19,22,8.90
2017,04,01,19,23,8.90
2017,04,01,19,24,8.90
2017,04,01,19,25,8.90
2017,04,01,19,26,8.90
2017,04,01,19,27,8.90
